| time (UTC) | temp C | wind direction | speed KPH | gust KPH | rain 1hr cm | rain 24hr cm | rain mn cm | humidity % | barometer mb |
| 20260506193050 | 28 | 206 | 0.0 | 16.1 | 0.00 | 0.00 | 0.00 | 87 | 1013.8 |
| 20260506192547 | 28 | 230 | 1.6 | 9.7 | 0.00 | 0.00 | 0.00 | 87 | 1013.8 |
| 20260506192043 | 29 | 194 | 3.2 | 11.3 | 0.00 | 0.00 | 0.00 | 86 | 1013.6 |
| 20260506191540 | 28 | 171 | 1.6 | 12.9 | 0.00 | 0.00 | 0.00 | 87 | 1013.8 |
| 20260506191035 | 28 | 159 | 4.8 | 14.5 | 0.00 | 0.00 | 0.00 | 86 | 1014.0 |
| 20260506190533 | 28 | 172 | 4.8 | 11.3 | 0.00 | 0.00 | 0.00 | 86 | 1014.1 |
| 20260506190030 | 28 | 261 | 4.8 | 12.9 | 0.00 | 0.00 | 0.00 | 87 | 1014.0 |
| 20260506185527 | 28 | 240 | 3.2 | 9.7 | 0.00 | 0.00 | 0.00 | 87 | 1014.1 |
| 20260506185024 | 28 | 216 | 3.2 | 9.7 | 0.00 | 0.00 | 0.00 | 87 | 1014.2 |
| 20260506184521 | 28 | 277 | 4.8 | 8.0 | 0.00 | 0.00 | 0.00 | 87 | 1014.2 |
| 20260506184018 | 28 | 171 | 3.2 | 11.3 | 0.00 | 0.00 | 0.00 | 87 | 1014.1 |
| 20260506183514 | 28 | 129 | 4.8 | 17.7 | 0.00 | 0.00 | 0.00 | 87 | 1014.1 |
| 20260506183011 | 28 | 179 | 1.6 | 12.9 | 0.00 | 0.00 | 0.00 | 87 | 1014.3 |
| 20260506182508 | 28 | 224 | 4.8 | 11.3 | 0.00 | 0.00 | 0.00 | 87 | 1014.2 |
| 20260506182005 | 28 | 254 | 1.6 | 8.0 | 0.00 | 0.00 | 0.00 | 86 | 1014.6 |
| 20260506181503 | 28 | 255 | 3.2 | 9.7 | 0.00 | 0.00 | 0.00 | 88 | 1014.5 |
| 20260506181000 | 28 | 180 | 1.6 | 8.0 | 0.00 | 0.00 | 0.00 | 87 | 1014.6 |
| 20260506180456 | 29 | 220 | 3.2 | 4.8 | 0.00 | 0.00 | 0.00 | 86 | 1014.6 |
| 20260506175953 | 29 | 326 | 0.0 | 8.0 | 0.00 | 0.00 | 0.00 | 86 | 1014.7 |
| 20260506175449 | 28 | 218 | 0.0 | 17.7 | 0.00 | 0.00 | 0.00 | 88 | 1014.5 |
| 20260506174946 | 28 | 138 | 3.2 | 12.9 | 0.00 | 0.00 | 0.00 | 89 | 1014.8 |
| 20260506174444 | 28 | 185 | 4.8 | 14.5 | 0.00 | 0.00 | 0.00 | 89 | 1014.6 |
| 20260506173940 | 27 | 230 | 11.3 | 22.5 | 0.00 | 0.00 | 0.00 | 90 | 1014.8 |
| 20260506173438 | 27 | 166 | 4.8 | 8.0 | 0.00 | 0.00 | 0.00 | 91 | 1014.8 |
| 20260506172935 | 27 | 230 | 1.6 | 9.7 | 0.00 | 0.00 | 0.00 | 90 | 1015.0 |
| 20260506172432 | 27 | 147 | 3.2 | 11.3 | 0.00 | 0.00 | 0.00 | 89 | 1015.0 |
| 20260506171928 | 27 | 112 | 8.0 | 9.7 | 0.00 | 0.00 | 0.00 | 90 | 1015.1 |
| 20260506171426 | 27 | 195 | 0.0 | 6.4 | 0.00 | 0.00 | 0.00 | 91 | 1015.0 |
| 20260506170924 | 27 | 141 | 4.8 | 9.7 | 0.00 | 0.00 | 0.00 | 91 | 1015.0 |
| 20260506170419 | 27 | 171 | 3.2 | 4.8 | 0.00 | 0.00 | 0.00 | 91 | 1015.3 |
| 20260506165913 | 27 | 209 | 1.6 | 4.8 | 0.00 | 0.00 | 0.00 | 93 | 1015.1 |
| 20260506165411 | 27 | 240 | 1.6 | 11.3 | 0.00 | 0.00 | 0.00 | 94 | 1015.5 |
| 20260506164907 | 26 | 147 | 3.2 | 6.4 | 0.00 | 0.00 | 0.00 | 95 | 1015.1 |
| 20260506164403 | 27 | 197 | 0.0 | 3.2 | 0.00 | 0.00 | 0.00 | 96 | 1015.2 |
| 20260506163901 | 26 | 191 | 0.0 | 6.4 | 0.00 | 0.00 | 0.00 | 96 | 1015.5 |
| 20260506163356 | 26 | 168 | 3.2 | 6.4 | 0.05 | 0.00 | 0.00 | 96 | 1015.1 |
| 20260506162851 | 26 | 191 | 3.2 | 3.2 | 0.05 | 0.00 | 0.00 | 96 | 1015.1 |
| 20260506162349 | 26 | 185 | 0.0 | 4.8 | 0.00 | 0.00 | 0.00 | 95 | 1015.1 |
| 20260506161841 | 26 | 94 | 3.2 | 8.0 | 0.00 | 0.00 | 0.00 | 95 | 1014.9 |
| 20260506161338 | 26 | 155 | 6.4 | 9.7 | 0.00 | 0.00 | 0.00 | 96 | 1015.0 |
| 20260506160835 | 26 | 212 | 0.0 | 4.8 | 0.00 | 0.00 | 0.00 | 95 | 1015.1 |
| 20260506160332 | 26 | 210 | 1.6 | 6.4 | 0.00 | 0.00 | 0.00 | 96 | 1015.1 |
| 20260506155830 | 26 | 159 | 0.0 | 4.8 | 0.00 | 0.00 | 0.00 | 96 | 1015.1 |
| 20260506155326 | 26 | 177 | 1.6 | 8.0 | 0.00 | 0.00 | 0.00 | 95 | 1015.0 |
| 20260506153439 | 26 | 244 | 1.6 | 6.4 | 0.00 | 0.00 | 0.00 | 97 | 1014.8 |
| 20260506152936 | 26 | 170 | 3.2 | 4.8 | 0.00 | 0.00 | 0.00 | 96 | 1014.6 |
| 20260506152433 | 26 | 140 | 3.2 | 9.7 | 0.00 | 0.00 | 0.00 | 96 | 1014.5 |
| 20260506151932 | 26 | 152 | 3.2 | 8.0 | 0.00 | 0.00 | 0.00 | 96 | 1014.6 |
| 20260506151428 | 26 | 165 | 3.2 | 8.0 | 0.00 | 0.00 | 0.00 | 96 | 1014.4 |
| 20260506150926 | 26 | 172 | 3.2 | 11.3 | 0.00 | 0.00 | 0.00 | 96 | 1014.5 |
| 20260506150422 | 26 | 255 | 4.8 | 14.5 | 0.00 | 0.00 | 0.00 | 96 | 1014.2 |
| 20260506145919 | 26 | 155 | 3.2 | 9.7 | 0.00 | 0.00 | 0.00 | 96 | 1014.1 |
| 20260506145415 | 26 | 213 | 4.8 | 8.0 | 0.00 | 0.00 | 0.00 | 96 | 1014.1 |
| 20260506144913 | 26 | 104 | 4.8 | 11.3 | 0.00 | 0.00 | 0.00 | 96 | 1013.8 |
| 20260506144409 | 26 | 182 | 1.6 | 11.3 | 0.00 | 0.00 | 0.00 | 97 | 1013.9 |
| 20260506143908 | 25 | 243 | 6.4 | 8.0 | 0.00 | 0.00 | 0.00 | 97 | 1014.0 |
| 20260506143404 | 25 | 214 | 0.0 | 11.3 | 0.00 | 0.00 | 0.00 | 97 | 1013.9 |
| 20260506142903 | 25 | 157 | 3.2 | 11.3 | 0.00 | 0.00 | 0.00 | 96 | 1014.0 |
| 20260506142401 | 26 | 155 | 1.6 | 11.3 | 0.00 | 0.00 | 0.00 | 96 | 1013.9 |
| 20260506141858 | 26 | 116 | 6.4 | 11.3 | 0.00 | 0.00 | 0.00 | 96 | 1014.3 |
| 20260506141356 | 26 | 230 | 3.2 | 9.7 | 0.00 | 0.00 | 0.00 | 96 | 1014.0 |
| 20260506140854 | 26 | 149 | 1.6 | 14.5 | 0.00 | 0.00 | 0.00 | 96 | 1014.1 |
| 20260506140351 | 26 | 129 | 1.6 | 8.0 | 0.00 | 0.00 | 0.00 | 96 | 1014.2 |
| 20260506135848 | 26 | 216 | 4.8 | 4.8 | 0.00 | 0.00 | 0.00 | 95 | 1014.2 |
| 20260506135344 | 26 | 189 | 1.6 | 8.0 | 0.00 | 0.00 | 0.00 | 96 | 1014.3 |
| 20260506134841 | 26 | 189 | 1.6 | 6.4 | 0.00 | 0.00 | 0.00 | 97 | 1014.1 |
| 20260506134337 | 25 | 186 | 3.2 | 9.7 | 0.00 | 0.00 | 0.00 | 97 | 1014.3 |
| 20260506133834 | 25 | 160 | 4.8 | 6.4 | 0.00 | 0.00 | 0.00 | 98 | 1014.2 |
| 20260506133331 | 25 | 146 | 0.0 | 4.8 | 0.00 | 0.00 | 0.00 | 98 | 1014.3 |
| 20260506132827 | 25 | 210 | 1.6 | 3.2 | 0.00 | 0.00 | 0.00 | 98 | 1014.3 |
| 20260506132325 | 25 | 122 | 4.8 | 6.4 | 0.00 | 0.00 | 0.00 | 98 | 1014.2 |
| 20260506131823 | 25 | 210 | 1.6 | 6.4 | 0.00 | 0.00 | 0.00 | 99 | 1014.5 |
| 20260506131319 | 25 | 210 | 3.2 | 4.8 | 0.00 | 0.00 | 0.00 | 99 | 1014.4 |
| 20260506130816 | 25 | 193 | 0.0 | 4.8 | 0.00 | 0.00 | 0.00 | 99 | 1014.1 |
| 20260506130312 | 25 | 212 | 0.0 | 4.8 | 0.00 | 0.00 | 0.00 | 99 | 1014.2 |
| 20260506125811 | 25 | 81 | 0.0 | 4.8 | 0.00 | 0.00 | 0.00 | 99 | 1014.3 |
| 20260506125308 | 25 | 323 | 0.0 | 9.7 | 0.00 | 0.00 | 0.00 | 99 | 1014.4 |
| 20260506124807 | 25 | 197 | 1.6 | 8.0 | 0.00 | 0.00 | 0.00 | 99 | 1014.0 |
| 20260506124303 | 25 | 204 | 1.6 | 4.8 | 0.00 | 0.00 | 0.00 | 99 | 1014.1 |
| 20260506123801 | 25 | 254 | 3.2 | 6.4 | 0.00 | 0.00 | 0.00 | 99 | 1014.0 |
| 20260506123300 | 25 | 190 | 1.6 | 4.8 | 0.00 | 0.00 | 0.00 | 99 | 1013.9 |
| 20260506122756 | 25 | 164 | 1.6 | 8.0 | 0.00 | 0.00 | 0.00 | 99 | 1014.0 |
| 20260506122253 | 25 | 172 | 1.6 | 9.7 | 0.00 | 0.00 | 0.00 | 99 | 1013.8 |
| 20260506121751 | 24 | 191 | 3.2 | 8.0 | 0.00 | 0.00 | 0.00 | 99 | 1014.0 |
| 20260506121248 | 24 | 142 | 0.0 | 6.4 | 0.00 | 0.00 | 0.00 | 99 | 1013.8 |
| 20260506120745 | 24 | 213 | 3.2 | 9.7 | 0.00 | 0.00 | 0.00 | 99 | 1013.6 |
| 20260506120243 | 24 | 148 | 8.0 | 11.3 | 0.00 | 0.00 | 0.00 | 99 | 1013.6 |
| 20260506115740 | 24 | 230 | 0.0 | 4.8 | 0.00 | 0.00 | 0.00 | 99 | 1013.6 |
| 20260506115238 | 24 | 267 | 1.6 | 6.4 | 0.00 | 0.00 | 0.00 | 99 | 1013.6 |
| 20260506114736 | 24 | 217 | 0.0 | 11.3 | 0.00 | 0.00 | 0.00 | 99 | 1013.4 |
| 20260506114233 | 24 | 185 | 4.8 | 8.0 | 0.00 | 0.00 | 0.00 | 99 | 1013.3 |
| 20260506113731 | 24 | 164 | 3.2 | 8.0 | 0.00 | 0.00 | 0.00 | 99 | 1013.3 |
| 20260506113229 | 24 | 161 | 1.6 | 4.8 | 0.00 | 0.00 | 0.00 | 99 | 1013.1 |
| 20260506112725 | 24 | 170 | 1.6 | 4.8 | 0.00 | 0.00 | 0.00 | 99 | 1013.3 |
| 20260506112223 | 24 | 138 | 3.2 | 9.7 | 0.00 | 0.00 | 0.00 | 99 | 1013.1 |
| 20260506111720 | 24 | 150 | 4.8 | 8.0 | 0.00 | 0.00 | 0.00 | 99 | 1013.2 |
| 20260506111218 | 24 | 220 | 0.0 | 16.1 | 0.00 | 0.00 | 0.00 | 99 | 1012.9 |
| 20260506110714 | 24 | 132 | 1.6 | 6.4 | 0.00 | 0.00 | 0.00 | 99 | 1013.0 |
| 20260506110212 | 24 | 155 | 4.8 | 6.4 | 0.00 | 0.00 | 0.00 | 99 | 1012.8 |
| 20260506105709 | 24 | 184 | 3.2 | 12.9 | 0.00 | 0.00 | 0.00 | 99 | 1013.0 |
| 20260506105205 | 24 | 166 | 0.0 | 9.7 | 0.00 | 0.00 | 0.00 | 99 | 1013.3 |
| 20260506104704 | 24 | 210 | 1.6 | 6.4 | 0.00 | 0.00 | 0.00 | 99 | 1013.1 |
| 20260506104201 | 24 | 180 | 1.6 | 12.9 | 0.00 | 0.00 | 0.00 | 99 | 1013.1 |
| 20260506103658 | 24 | 106 | 1.6 | 4.8 | 0.00 | 0.00 | 0.00 | 99 | 1013.3 |
| 20260506103155 | 23 | 146 | 1.6 | 4.8 | 0.00 | 0.00 | 0.00 | 99 | 1013.3 |
| 20260506102653 | 23 | 134 | 3.2 | 4.8 | 0.00 | 0.00 | 0.00 | 99 | 1013.2 |
| 20260506102150 | 23 | 217 | 0.0 | 1.6 | 0.00 | 0.00 | 0.00 | 99 | 1013.3 |
| 20260506101647 | 23 | 230 | 0.0 | 0.0 | 0.00 | 0.00 | 0.00 | 99 | 1013.0 |
| 20260506101144 | 23 | 147 | 0.0 | 3.2 | 0.00 | 0.00 | 0.00 | 99 | 1013.0 |
| 20260506100642 | 23 | 153 | 1.6 | 4.8 | 0.00 | 0.00 | 0.00 | 99 | 1012.9 |
| 20260506100140 | 23 | 124 | 3.2 | 3.2 | 0.00 | 0.00 | 0.00 | 99 | 1012.9 |
| 20260506095638 | 23 | 140 | 3.2 | 4.8 | 0.00 | 0.00 | 0.00 | 99 | 1012.9 |
| 20260506095134 | 23 | 163 | 1.6 | 3.2 | 0.00 | 0.00 | 0.00 | 99 | 1012.7 |
| 20260506094632 | 24 | 170 | 1.6 | 4.8 | 0.00 | 0.00 | 0.00 | 99 | 1013.0 |
| 20260506094130 | 24 | 182 | 0.0 | 4.8 | 0.00 | 0.00 | 0.00 | 99 | 1012.8 |
| 20260506093628 | 24 | 129 | 1.6 | 3.2 | 0.00 | 0.00 | 0.00 | 99 | 1012.9 |
| 20260506093125 | 24 | 160 | 0.0 | 6.4 | 0.00 | 0.00 | 0.00 | 99 | 1013.0 |
| 20260506092623 | 24 | 164 | 0.0 | 6.4 | 0.00 | 0.00 | 0.00 | 99 | 1012.9 |
| 20260506092120 | 24 | 178 | 0.0 | 4.8 | 0.00 | 0.00 | 0.00 | 99 | 1013.0 |
| 20260506091618 | 24 | 190 | 1.6 | 4.8 | 0.00 | 0.00 | 0.00 | 99 | 1012.8 |
| 20260506091115 | 24 | 192 | 1.6 | 6.4 | 0.00 | 0.00 | 0.00 | 99 | 1013.0 |
| 20260506090613 | 24 | 139 | 0.0 | 6.4 | 0.00 | 0.00 | 0.00 | 99 | 1013.1 |
| 20260506090109 | 24 | 140 | 1.6 | 9.7 | 0.00 | 0.00 | 0.00 | 99 | 1013.0 |
| 20260506085606 | 24 | 179 | 1.6 | 6.4 | 0.00 | 0.00 | 0.00 | 99 | 1013.0 |
| 20260506085102 | 24 | 128 | 1.6 | 11.3 | 0.00 | 0.00 | 0.00 | 99 | 1013.1 |
| 20260506084559 | 24 | 118 | 3.2 | 3.2 | 0.00 | 0.00 | 0.00 | 99 | 1013.1 |
| 20260506084055 | 24 | 180 | 3.2 | 6.4 | 0.00 | 0.00 | 0.00 | 99 | 1013.3 |
| 20260506083552 | 24 | 199 | 0.0 | 6.4 | 0.00 | 0.00 | 0.00 | 98 | 1013.4 |
| 20260506083050 | 24 | 117 | 0.0 | 4.8 | 0.00 | 0.00 | 0.00 | 98 | 1013.4 |
| 20260506082546 | 25 | 188 | 0.0 | 8.0 | 0.00 | 0.00 | 0.00 | 98 | 1013.3 |
| 20260506082042 | 25 | 184 | 0.0 | 8.0 | 0.00 | 0.00 | 0.00 | 98 | 1013.1 |
| 20260506081541 | 25 | 168 | 3.2 | 11.3 | 0.00 | 0.00 | 0.00 | 98 | 1013.1 |
| 20260506081037 | 25 | 171 | 0.0 | 8.0 | 0.00 | 0.00 | 0.00 | 98 | 1013.2 |
| 20260506080535 | 25 | 196 | 3.2 | 8.0 | 0.00 | 0.00 | 0.00 | 98 | 1013.3 |
| 20260506073519 | 25 | 235 | 3.2 | 6.4 | 0.00 | 0.00 | 0.00 | 97 | 1013.8 |
| 20260506073016 | 25 | 294 | 3.2 | 6.4 | 0.00 | 0.00 | 0.00 | 97 | 1013.9 |
| 20260506072513 | 25 | 235 | 0.0 | 4.8 | 0.00 | 0.00 | 0.00 | 97 | 1013.9 |
| 20260506072010 | 25 | 219 | 3.2 | 11.3 | 0.00 | 0.00 | 0.00 | 97 | 1013.9 |
| 20260506071508 | 25 | 197 | 3.2 | 6.4 | 0.00 | 0.00 | 0.00 | 97 | 1013.7 |
| 20260506071005 | 25 | 248 | 0.0 | 6.4 | 0.00 | 0.00 | 0.00 | 97 | 1014.0 |
| 20260506070503 | 25 | 212 | 1.6 | 6.4 | 0.00 | 0.00 | 0.00 | 97 | 1014.0 |
| 20260506062440 | 25 | 190 | 1.6 | 6.4 | 0.00 | 0.00 | 0.00 | 97 | 1013.8 |
| 20260506061935 | 25 | 89 | 3.2 | 6.4 | 0.00 | 0.00 | 0.00 | 97 | 1013.8 |
| 20260506061432 | 25 | 221 | 1.6 | 4.8 | 0.00 | 0.00 | 0.00 | 97 | 1013.9 |
| 20260506060930 | 25 | 135 | 4.8 | 6.4 | 0.00 | 0.00 | 0.00 | 97 | 1013.9 |
| 20260506060428 | 25 | 164 | 0.0 | 6.4 | 0.00 | 0.00 | 0.00 | 97 | 1013.8 |
| 20260506051400 | 25 | 188 | 4.8 | 11.3 | 0.00 | 0.00 | 0.00 | 96 | 1014.2 |
| 20260506050857 | 25 | 201 | 1.6 | 4.8 | 0.00 | 0.00 | 0.00 | 96 | 1014.0 |
| 20260506050355 | 25 | 157 | 4.8 | 16.1 | 0.00 | 0.00 | 0.00 | 96 | 1014.1 |
| 20260506044845 | 25 | 275 | 0.0 | 11.3 | 0.00 | 0.00 | 0.00 | 96 | 1014.1 |
| 20260506044343 | 25 | 187 | 0.0 | 11.3 | 0.00 | 0.00 | 0.00 | 96 | 1014.0 |
| 20260506043840 | 25 | 202 | 3.2 | 11.3 | 0.00 | 0.00 | 0.00 | 96 | 1014.0 |
| 20260506043337 | 25 | 113 | 3.2 | 20.9 | 0.00 | 0.00 | 0.00 | 96 | 1013.9 |
| 20260506042835 | 25 | 156 | 3.2 | 17.7 | 0.00 | 0.00 | 0.00 | 96 | 1013.8 |
| 20260506042334 | 25 | 144 | 6.4 | 12.9 | 0.00 | 0.00 | 0.00 | 96 | 1014.0 |
| 20260506041832 | 25 | 158 | 3.2 | 11.3 | 0.00 | 0.00 | 0.00 | 96 | 1013.8 |
| 20260506041329 | 25 | 137 | 1.6 | 17.7 | 0.00 | 0.00 | 0.00 | 96 | 1014.0 |
| 20260506040826 | 25 | 129 | 3.2 | 17.7 | 0.00 | 0.00 | 0.00 | 96 | 1013.9 |
| 20260506040324 | 25 | 163 | 1.6 | 11.3 | 0.00 | 0.00 | 0.00 | 96 | 1013.7 |
| 20260506035820 | 25 | 192 | 1.6 | 6.4 | 0.00 | 0.00 | 0.00 | 95 | 1013.7 |
| 20260506035317 | 25 | 162 | 4.8 | 11.3 | 0.00 | 0.00 | 0.00 | 95 | 1013.9 |
| 20260506034814 | 25 | 184 | 4.8 | 16.1 | 0.00 | 0.00 | 0.00 | 95 | 1013.8 |
| 20260506034311 | 25 | 202 | 3.2 | 22.5 | 0.00 | 0.00 | 0.00 | 95 | 1013.7 |
| 20260506033808 | 25 | 143 | 4.8 | 16.1 | 0.00 | 0.00 | 0.00 | 95 | 1013.6 |
| 20260506033305 | 25 | 195 | 4.8 | 20.9 | 0.00 | 0.00 | 0.00 | 95 | 1013.7 |
| 20260506032802 | 25 | 213 | 3.2 | 11.3 | 0.00 | 0.00 | 0.00 | 95 | 1013.4 |
| 20260506032259 | 25 | 138 | 3.2 | 8.0 | 0.00 | 0.00 | 0.00 | 95 | 1013.6 |
| 20260506031755 | 25 | 116 | 8.0 | 14.5 | 0.00 | 0.00 | 0.00 | 95 | 1013.5 |
| 20260506031253 | 25 | 182 | 1.6 | 14.5 | 0.00 | 0.00 | 0.00 | 95 | 1013.5 |
| 20260506030751 | 25 | 135 | 6.4 | 9.7 | 0.00 | 0.00 | 0.00 | 95 | 1013.5 |
| 20260506030248 | 25 | 233 | 3.2 | 6.4 | 0.00 | 0.00 | 0.00 | 95 | 1013.6 |
| 20260506025745 | 25 | 143 | 3.2 | 8.0 | 0.00 | 0.00 | 0.00 | 96 | 1013.5 |
| 20260506025241 | 25 | 201 | 1.6 | 14.5 | 0.00 | 0.00 | 0.00 | 96 | 1013.3 |
| 20260506024738 | 25 | 182 | 3.2 | 6.4 | 0.00 | 0.00 | 0.00 | 96 | 1013.1 |
| 20260506024235 | 25 | 152 | 1.6 | 11.3 | 0.00 | 0.00 | 0.00 | 96 | 1013.1 |
| 20260506023731 | 25 | 205 | 1.6 | 12.9 | 0.00 | 0.00 | 0.00 | 96 | 1013.1 |
| 20260506023228 | 25 | 257 | 3.2 | 8.0 | 0.00 | 0.00 | 0.00 | 96 | 1013.2 |
| 20260506022719 | 25 | 160 | 3.2 | 11.3 | 0.00 | 0.00 | 0.00 | 95 | 1012.9 |
| 20260506022217 | 25 | 124 | 6.4 | 12.9 | 0.00 | 0.00 | 0.00 | 95 | 1012.9 |
| 20260506021715 | 25 | 179 | 1.6 | 6.4 | 0.00 | 0.00 | 0.00 | 95 | 1012.9 |
| 20260506021212 | 25 | 185 | 3.2 | 6.4 | 0.00 | 0.00 | 0.00 | 95 | 1012.7 |
| 20260506020708 | 25 | 191 | 3.2 | 14.5 | 0.00 | 0.00 | 0.00 | 95 | 1012.7 |
| 20260506020206 | 25 | 183 | 3.2 | 8.0 | 0.00 | 0.00 | 0.00 | 95 | 1012.7 |
| 20260506015704 | 25 | 202 | 1.6 | 12.9 | 0.00 | 0.00 | 0.00 | 95 | 1012.4 |
| 20260506015201 | 25 | 273 | 0.0 | 4.8 | 0.00 | 0.00 | 0.00 | 94 | 1012.7 |
| 20260506014658 | 25 | 185 | 3.2 | 11.3 | 0.00 | 0.00 | 0.00 | 94 | 1012.4 |
| 20260506014154 | 25 | 91 | 3.2 | 9.7 | 0.00 | 0.00 | 0.00 | 94 | 1012.4 |
| 20260506013652 | 25 | 249 | 1.6 | 17.7 | 0.00 | 0.00 | 0.00 | 94 | 1012.4 |
| 20260506013149 | 25 | 168 | 3.2 | 8.0 | 0.00 | 0.00 | 0.00 | 94 | 1012.2 |
| 20260506012645 | 25 | 226 | 3.2 | 12.9 | 0.00 | 0.00 | 0.00 | 93 | 1012.2 |
| 20260506012142 | 25 | 184 | 4.8 | 9.7 | 0.00 | 0.00 | 0.00 | 93 | 1012.2 |
| 20260506011639 | 25 | 166 | 4.8 | 12.9 | 0.00 | 0.00 | 0.00 | 93 | 1012.2 |
| 20260506011135 | 25 | 171 | 1.6 | 16.1 | 0.00 | 0.00 | 0.00 | 93 | 1012.0 |
| 20260506010634 | 25 | 196 | 3.2 | 11.3 | 0.00 | 0.00 | 0.00 | 93 | 1012.1 |
| 20260506010131 | 25 | 211 | 1.6 | 12.9 | 0.00 | 0.00 | 0.00 | 92 | 1011.9 |
| 20260506005628 | 25 | 124 | 4.8 | 12.9 | 0.00 | 0.00 | 0.00 | 92 | 1011.7 |
| 20260506005124 | 25 | 198 | 4.8 | 19.3 | 0.00 | 0.00 | 0.00 | 92 | 1011.7 |
| 20260506004621 | 25 | 155 | 3.2 | 17.7 | 0.00 | 0.00 | 0.00 | 92 | 1011.7 |
| 20260506004118 | 25 | 259 | 6.4 | 14.5 | 0.00 | 0.00 | 0.00 | 92 | 1011.9 |
| 20260506003615 | 25 | 229 | 0.0 | 6.4 | 0.00 | 0.00 | 0.00 | 91 | 1011.6 |
| 20260506003111 | 25 | 181 | 4.8 | 9.7 | 0.00 | 0.00 | 0.00 | 92 | 1011.5 |
| 20260506002607 | 26 | 128 | 4.8 | 11.3 | 0.00 | 0.00 | 0.00 | 91 | 1011.7 |
| 20260506002103 | 26 | 216 | 3.2 | 8.0 | 0.00 | 0.00 | 0.00 | 91 | 1011.7 |
| 20260506001559 | 26 | 216 | 6.4 | 16.1 | 0.00 | 0.00 | 0.00 | 91 | 1011.7 |
| 20260506001056 | 26 | 248 | 6.4 | 14.5 | 0.00 | 0.00 | 0.00 | 91 | 1011.5 |
| 20260506000554 | 26 | 163 | 3.2 | 17.7 | 0.00 | 0.00 | 0.00 | 91 | 1011.5 |
| 20260506000051 | 26 | 122 | 1.6 | 11.3 | 0.00 | 0.00 | 0.00 | 90 | 1011.6 |
| 20260505235549 | 26 | 167 | 3.2 | 8.0 | 0.00 | 0.00 | 0.00 | 90 | 1011.8 |
| 20260505235045 | 26 | 258 | 4.8 | 9.7 | 0.00 | 0.00 | 0.00 | 90 | 1011.8 |
| 20260505234543 | 26 | 286 | 8.0 | 12.9 | 0.00 | 0.00 | 0.00 | 90 | 1011.7 |
| 20260505234039 | 26 | 235 | 0.0 | 9.7 | 0.00 | 0.00 | 0.00 | 90 | 1011.6 |
| 20260505233537 | 26 | 242 | 4.8 | 16.1 | 0.00 | 0.00 | 0.00 | 89 | 1011.6 |
| 20260505233034 | 26 | 187 | 3.2 | 9.7 | 0.00 | 0.00 | 0.00 | 89 | 1011.9 |
| 20260505232532 | 26 | 197 | 3.2 | 11.3 | 0.00 | 0.00 | 0.00 | 88 | 1011.8 |
| 20260505232029 | 26 | 200 | 1.6 | 6.4 | 0.00 | 0.00 | 0.00 | 88 | 1011.7 |
| 20260505231526 | 26 | 175 | 1.6 | 8.0 | 0.00 | 0.00 | 0.00 | 88 | 1011.7 |
| 20260505231025 | 26 | 216 | 1.6 | 17.7 | 0.00 | 0.00 | 0.00 | 88 | 1011.5 |
| 20260505230521 | 26 | 205 | 3.2 | 12.9 | 0.00 | 0.00 | 0.00 | 88 | 1012.0 |
| 20260505230018 | 26 | 251 | 6.4 | 24.1 | 0.00 | 0.00 | 0.00 | 87 | 1011.7 |
| 20260505225515 | 26 | 262 | 3.2 | 11.3 | 0.00 | 0.00 | 0.00 | 87 | 1011.7 |
| 20260505225011 | 26 | 292 | 1.6 | 9.7 | 0.00 | 0.00 | 0.00 | 87 | 1011.9 |
| 20260505224508 | 26 | 328 | 1.6 | 9.7 | 0.00 | 0.00 | 0.00 | 87 | 1011.6 |
| 20260505224005 | 26 | 218 | 4.8 | 11.3 | 0.00 | 0.00 | 0.00 | 88 | 1011.5 |
| 20260505223502 | 26 | 239 | 1.6 | 6.4 | 0.00 | 0.00 | 0.00 | 88 | 1011.7 |
| 20260505222958 | 26 | 261 | 4.8 | 6.4 | 0.00 | 0.00 | 0.00 | 88 | 1011.8 |
| 20260505222455 | 26 | 64 | 0.0 | 9.7 | 0.00 | 0.00 | 0.00 | 88 | 1011.8 |
| 20260505221950 | 26 | 254 | 4.8 | 8.0 | 0.00 | 0.00 | 0.00 | 89 | 1011.8 |
| 20260505221448 | 26 | 135 | 4.8 | 12.9 | 0.00 | 0.00 | 0.00 | 89 | 1012.1 |
| 20260505220945 | 26 | 186 | 3.2 | 12.9 | 0.00 | 0.00 | 0.00 | 89 | 1011.9 |
| 20260505220442 | 27 | 189 | 3.2 | 12.9 | 0.00 | 0.00 | 0.00 | 88 | 1011.7 |
| 20260505215939 | 27 | 210 | 3.2 | 16.1 | 0.00 | 0.00 | 0.00 | 88 | 1012.1 |
| 20260505215438 | 27 | 197 | 0.0 | 8.0 | 0.00 | 0.00 | 0.00 | 88 | 1012.2 |
| 20260505214935 | 27 | 225 | 1.6 | 6.4 | 0.00 | 0.00 | 0.00 | 88 | 1012.0 |
| 20260505214433 | 27 | 297 | 1.6 | 8.0 | 0.00 | 0.00 | 0.00 | 88 | 1012.2 |
| 20260505213930 | 27 | 269 | 0.0 | 12.9 | 0.00 | 0.00 | 0.00 | 87 | 1012.5 |
| 20260505213427 | 27 | 233 | 1.6 | 11.3 | 0.00 | 0.00 | 0.00 | 86 | 1012.3 |
| 20260505212923 | 27 | 248 | 3.2 | 9.7 | 0.00 | 0.00 | 0.00 | 86 | 1012.3 |
| 20260505212421 | 27 | 130 | 3.2 | 8.0 | 0.00 | 0.00 | 0.00 | 87 | 1012.2 |
| 20260505211916 | 27 | 272 | 3.2 | 16.1 | 0.00 | 0.00 | 0.00 | 88 | 1012.4 |
| 20260505211414 | 26 | 255 | 8.0 | 9.7 | 0.00 | 0.00 | 0.00 | 89 | 1012.3 |
| 20260505210910 | 26 | 257 | 4.8 | 14.5 | 0.00 | 0.00 | 0.00 | 89 | 1012.6 |
| 20260505210408 | 27 | 254 | 6.4 | 17.7 | 0.00 | 0.00 | 0.00 | 88 | 1012.6 |
| 20260505205905 | 27 | 231 | 6.4 | 12.9 | 0.00 | 0.00 | 0.00 | 87 | 1012.2 |
| 20260505205403 | 27 | 274 | 3.2 | 16.1 | 0.00 | 0.00 | 0.00 | 88 | 1012.6 |
| 20260505204900 | 27 | 269 | 0.0 | 11.3 | 0.00 | 0.00 | 0.00 | 88 | 1012.9 |
| 20260505204357 | 27 | 67 | 0.0 | 12.9 | 0.00 | 0.00 | 0.00 | 88 | 1012.8 |
| 20260505203855 | 27 | 139 | 3.2 | 9.7 | 0.00 | 0.00 | 0.00 | 88 | 1012.8 |
| 20260505203351 | 27 | 233 | 0.0 | 11.3 | 0.00 | 0.00 | 0.00 | 87 | 1013.0 |
| 20260505202847 | 27 | 236 | 0.0 | 8.0 | 0.00 | 0.00 | 0.00 | 88 | 1012.8 |
| 20260505202343 | 26 | 225 | 4.8 | 8.0 | 0.00 | 0.00 | 0.00 | 89 | 1013.1 |
| 20260505201840 | 26 | 228 | 3.2 | 6.4 | 0.00 | 0.00 | 0.00 | 89 | 1013.2 |
| 20260505201337 | 27 | 215 | 1.6 | 8.0 | 0.00 | 0.00 | 0.00 | 88 | 1013.2 |
| 20260505200836 | 27 | 269 | 3.2 | 11.3 | 0.00 | 0.00 | 0.00 | 87 | 1013.3 |
| 20260505200332 | 27 | 67 | 0.0 | 8.0 | 0.00 | 0.00 | 0.00 | 88 | 1013.4 |
| 20260505195828 | 27 | 227 | 4.8 | 8.0 | 0.00 | 0.00 | 0.00 | 89 | 1013.1 |
| 20260505195325 | 27 | 231 | 3.2 | 12.9 | 0.00 | 0.00 | 0.00 | 88 | 1013.2 |
| 20260505194822 | 27 | 199 | 3.2 | 19.3 | 0.00 | 0.00 | 0.00 | 88 | 1013.3 |
| 20260505194319 | 27 | 221 | 1.6 | 9.7 | 0.00 | 0.00 | 0.00 | 87 | 1013.3 |
| 20260505193814 | 27 | 163 | 3.2 | 4.8 | 0.00 | 0.00 | 0.00 | 88 | 1013.5 |